China Lake, CA

8:38 AM PST on December 13, 2017 (GMT -0800)
China Lake NAWS

Weather History for KNID - October, 2011

Change the Weather History Date:

Sunday, October 30, 2011

  Actual Average Record
Temperature  
Mean Temperature 62 °F -  
Max Temperature 82 °F 69 °F 84 °F (2008)
Min Temperature 41 °F 43 °F 37 °F (2013)
Degree Days  
Heating Degree Days 4    
Growing Degree Days 12 (Base 50)    
Moisture  
Dew Point 10 °F    
Average Humidity 15    
Maximum Humidity 25    
Minimum Humidity 7    
Precipitation  
Precipitation 0.00 in - - ()
Sea Level Pressure  
Sea Level Pressure 30.09 in    
Wind  
Wind Speed 3 mph (South)    
Max Wind Speed 10 mph    
Max Gust Speed -    
Visibility 10 miles    
Events      
Averages and records for this station are not official NWS values.
T = Trace of Precipitation, MM = Missing Value Source: NWS Daily Summary

Daily Weather History Graph

Daily Weather History Graph

Search for Another Location

Airport or City:

Trip Planner

Search our weather history database for the weather conditions in past years. The results will help you decide how hot, cold, wet, or windy it might be!

Date:

Astronomy

Oct. 30, 2011 Rise Set
Actual Time 7:10 AM PDT 5:57 PM PDT
Civil Twilight 6:44 AM PDT 6:23 PM PDT
Nautical Twilight 6:14 AM PDT 6:53 PM PDT
Astronomical Twilight 5:44 AM PDT 7:23 PM PDT
Moon 11:28 AM PDT (10/30) 9:37 PM PDT (10/30)
Length of Visible Light 11h 39m
Length of Day
10h 46m
Waxing Crescent, 21% of the Moon is Illuminated
Oct 30
Waxing Crescent
Nov 2
First Quarter
Nov 10
Full
Nov 18
Last Quarter
Nov 24
New

Hourly Weather History & Observations

Time (PDT) Temp. Windchill Dew Point Humidity Pressure Visibility Wind Dir Wind Speed Gust Speed Precip Events Conditions
12:56 AM 45.0 °F - 1.9 °F 17% 30.10 in 10.0 mi Calm Calm - N/A   Clear
1:56 AM 46.0 °F 43.9 °F 9.0 °F 22% 30.10 in 10.0 mi SW 4.6 mph - N/A   Clear
2:56 AM 45.0 °F 41.8 °F 10.0 °F 24% 30.09 in 10.0 mi South 5.8 mph - N/A   Clear
3:56 AM 43.0 °F 41.3 °F 7.0 °F 23% 30.09 in 10.0 mi SW 3.5 mph - N/A   Clear
4:56 AM 45.0 °F - 9.0 °F 23% 30.10 in 10.0 mi Calm Calm - N/A   Clear
5:56 AM 41.0 °F - 3.9 °F 21% 30.13 in 10.0 mi Calm Calm - N/A   Clear
6:56 AM 41.0 °F 35.8 °F 7.0 °F 25% 30.13 in 10.0 mi SW 8.1 mph - N/A   Clear
7:56 AM 43.0 °F - 7.0 °F 23% 30.16 in 10.0 mi Calm Calm - N/A   Clear
8:56 AM 52.0 °F - 10.0 °F 19% 30.17 in 10.0 mi Calm Calm - N/A   Clear
9:56 AM 61.0 °F - 10.9 °F 14% 30.17 in 10.0 mi Calm Calm - N/A   Clear
10:56 AM 69.1 °F - 12.9 °F 11% 30.15 in 10.0 mi Calm Calm - N/A   Clear
11:56 AM 75.9 °F - 14.0 °F 10% 30.13 in 10.0 mi Calm Calm - N/A   Clear
12:56 PM 77.0 °F - 12.0 °F 8% 30.10 in 10.0 mi Calm Calm - N/A   Clear
1:56 PM 80.1 °F - 12.9 °F 8% 30.08 in 10.0 mi East 5.8 mph - N/A   Clear
2:56 PM 82.0 °F - 12.9 °F 7% 30.05 in 10.0 mi Variable 3.5 mph - N/A   Clear
3:56 PM 82.9 °F - 12.9 °F 7% 30.04 in 10.0 mi Calm Calm - N/A   Clear
4:56 PM 81.0 °F - 12.0 °F 7% 30.03 in 10.0 mi East 3.5 mph - N/A   Clear
5:56 PM 72.0 °F - 10.9 °F 10% 30.04 in 10.0 mi SE 4.6 mph - N/A   Clear
6:56 PM 68.0 °F - 12.0 °F 11% 30.06 in 10.0 mi SSE 4.6 mph - N/A   Clear
7:56 PM 64.9 °F - 10.0 °F 12% 30.06 in 10.0 mi SSW 10.4 mph - N/A   Clear
8:56 PM 59.0 °F - 10.0 °F 14% 30.06 in 10.0 mi South 4.6 mph - N/A   Clear
9:56 PM 57.9 °F - 10.9 °F 16% 30.06 in 10.0 mi SSW 8.1 mph - N/A   Clear
10:56 PM 54.0 °F - 10.9 °F 18% 30.06 in 10.0 mi South 8.1 mph - N/A   Clear
11:56 PM 53.1 °F - 14.0 °F 21% 30.06 in 10.0 mi SSW 10.4 mph - N/A   Clear